Location: Arcones
(41.1182°N, 3.7238°W)
Time: 04:05:12
(UTC+00:00)

SOZ - Pass Details

Date: 11 December 2025
Orbit: 281 x 12149 km, 52.0° (Epoch: 13 January)

Event Time Altitude Azimuth Distance (km) Brightness Sun altitude
Rises 17:23:39 0° 239° (WSW) 3,577 11.4 -7.1°
Reaches altitude 10° 17:27:07 10° 244° (WSW) 1,847 9.3 -7.7°
Maximum altitude 17:30:27 54° 324° (NW) 423 4.3 -8.2°
Enters shadow 17:32:21 12° 44° (NE) 1,060 5.7 -8.6°
